Flag for Lithuania Weather past 2 weeks in Vilnius, Lithuania

Now
61 °F

Clear.


Feels Like: 61 °F
Forecast: 62 / 86 °F
Wind: 1 mph from North

Location: Vilnius Airport

Current Time: Jul 5, 2015 at 3:16:18 AM

Latest Report: Jul 5, 2015 at 2:20 AM


Visibility: 10 mi

Pressure: 30.09 "Hg

Humidity: 77%

Dew point: 54 °F

Location of VilniusLocation

Historic Weather in Vilnius — Graph

°F

Vilnius temperature yesterday

Maximum temperature yesterday: 88 °F (at 3:50 PM)
Minimum temperature yesterday: 57 °F (at 5:20 AM)
Average temperature yesterday: 74 °F

Past Weeks' High & Low Weather Summary

 TemperatureHumidityPressure
High88 °F (Jul 4, 3:50 PM)100% (Jun 20, 2:50 AM)30.45 "Hg (Jun 20, 2:50 AM)
Low45 °F (Jun 28, 3:50 AM)25% (Jul 4, 2:20 PM)29.77 "Hg (Jun 23, 5:20 AM)
Average62 °F68%30.05 "Hg
* Reported Jun 20 2:20 AM — Jul 5 2:20 AM, Vilnius, Weather by CustomWeather, © 2015

Note: Actual official high and low records may vary slightly from our data, if they occured in-between our weather recording intervals... More about our weather records

Advertising

Vilnius weather history for previous 24 hours

 ConditionsComfort  
Time TempWeatherWind HumidityBarometerVisibility
2:20 AM
Sun, Jul 5
61 °FClear.1 mph77%30.09 "Hg10 mi
1:50 AM61 °FClear.1 mph77%30.09 "Hg10 mi
1:20 AM63 °FClear.No wind73%30.12 "Hg10 mi
12:50 AM63 °FClear.1 mph77%30.12 "Hg10 mi
12:20 AM66 °FClear.1 mph64%30.12 "Hg10 mi
11:50 PM
Sat, Jul 4
66 °FClear.1 mph64%30.12 "Hg10 mi
11:20 PM70 °FClear.1 mph57%30.12 "Hg10 mi
10:50 PM73 °FSunny.No wind47%30.12 "Hg10 mi
10:20 PM79 °FSunny.1 mph37%30.12 "Hg10 mi
9:50 PM81 °FSunny.2 mph32%30.12 "Hg10 mi
9:20 PM81 °FSunny.7 mph32%30.12 "Hg10 mi
8:50 PM82 °FSunny.8 mph30%30.12 "Hg10 mi
8:20 PM84 °FSunny.10 mph29%30.12 "Hg10 mi
7:50 PM84 °FSunny.10 mph29%30.15 "Hg10 mi
7:20 PM86 °FPassing clouds.10 mph27%30.15 "HgN/A
6:50 PM86 °FPassing clouds.10 mph27%30.15 "HgN/A
6:20 PM86 °FPassing clouds.12 mph27%30.15 "HgN/A
5:50 PM86 °FPassing clouds.13 mph27%30.18 "HgN/A
5:20 PM86 °FPassing clouds.9 mph27%30.18 "HgN/A
4:50 PM86 °FPassing clouds.7 mph27%30.18 "HgN/A
4:20 PM86 °FPassing clouds.7 mph27%30.21 "HgN/A
3:50 PM88 °FSunny.6 mph27%30.21 "Hg10 mi
3:20 PM86 °FPassing clouds.7 mph25%30.21 "HgN/A
2:50 PM86 °FPassing clouds.10 mph25%30.21 "HgN/A
2:20 PM86 °FPassing clouds.12 mph25%30.24 "HgN/A
1:50 PM86 °FPassing clouds.10 mph27%30.24 "HgN/A
1:20 PM84 °FPassing clouds.9 mph27%30.24 "HgN/A
12:50 PM84 °FSunny.6 mph29%30.24 "Hg10 mi
12:20 PM84 °FPassing clouds.9 mph29%30.27 "HgN/A
11:50 AM82 °FPassing clouds.9 mph32%30.27 "HgN/A
11:20 AM82 °FPassing clouds.6 mph30%30.27 "HgN/A
10:50 AM81 °FPassing clouds.8 mph34%30.27 "HgN/A
10:20 AM79 °FPassing clouds.7 mph37%30.30 "HgN/A
9:50 AM77 °FPassing clouds.5 mph44%30.30 "HgN/A
9:20 AM75 °FSunny.5 mph47%30.30 "Hg10 mi
8:50 AM72 °FSunny.7 mph53%30.30 "Hg10 mi
8:20 AM70 °FSunny.6 mph60%30.30 "Hg10 mi
7:50 AM66 °FSunny.6 mph68%30.30 "Hg10 mi
7:20 AM64 °FSunny.5 mph73%30.33 "Hg10 mi
6:50 AM61 °FSunny.3 mph77%30.30 "Hg10 mi
6:20 AM59 °FSunny.5 mph77%30.33 "Hg10 mi
5:50 AM57 °FSunny.5 mph82%30.33 "Hg10 mi
5:20 AM57 °FClear.5 mph82%30.33 "Hg10 mi
4:50 AM59 °FClear.5 mph77%30.33 "Hg10 mi
4:20 AM59 °FClear.5 mph77%30.33 "Hg10 mi
3:50 AM59 °FClear.5 mph77%30.33 "Hg10 mi
3:20 AM59 °FClear.5 mph82%30.33 "Hg10 mi
Weather by CustomWeather, © 2015

See weather overviewHow to use our weather pages